Cleveland, OH

5:25 AM EST on January 20, 2018 (GMT -0500)
Cleveland-Hopkins International

Weather History for KCLE - December, 2013

Change the Weather History Date:

Tuesday, December 17, 2013

  Actual Average Record
Temperature  
Mean Temperature 24 °F 32 °F  
Max Temperature 27 °F 38 °F 61 °F (1984)
Min Temperature 21 °F 26 °F -7 °F (1989)
Degree Days  
Heating Degree Days 41 33  
Month to date heating degree days 590 519  
Since 1 July heating degree days 1739 1614  
Cooling Degree Days 0 0  
Month to date cooling degree days 0 0  
Year to date cooling degree days 889 817  
Moisture  
Dew Point 21 °F    
Average Humidity 81    
Maximum Humidity 88    
Minimum Humidity 74    
Precipitation  
Precipitation 0.07 in 0.10 in 1.10 in (2001)
Month to date precipitation 1.01 1.73  
Year to date precipitation 38.76 37.77  
Snow  
Snow 0.70 in 0.40 in - ()
Month to date snowfall 11.5 6.8  
Since 1 July snowfall 16.2 11.3  
Snow Depth 6.00 in    
Sea Level Pressure  
Sea Level Pressure 30.00 in    
Wind  
Wind Speed 11 mph (SW)    
Max Wind Speed 18 mph    
Max Gust Speed 23 mph    
Visibility 6 miles    
Events Snow    
T = Trace of Precipitation, MM = Missing Value Source: NWS Daily Summary

Daily Weather History Graph

Daily Weather History Graph

Search for Another Location

Airport or City:

Trip Planner

Search our weather history database for the weather conditions in past years. The results will help you decide how hot, cold, wet, or windy it might be!

Date:

Astronomy

Dec. 17, 2013 Rise Set
Actual Time 7:48 AM EST 4:59 PM EST
Civil Twilight 7:16 AM EST 5:30 PM EST
Nautical Twilight 6:41 AM EST 6:05 PM EST
Astronomical Twilight 6:08 AM EST 6:39 PM EST
Moon 5:38 PM EST (12/17) 7:42 AM EST (12/17)
Length of Visible Light 10h 14m
Length of Day
9h 11m
Full, 100% of the Moon is Illuminated
Dec 17
Full
Dec 25
Last Quarter
Jan 1
New
Jan 7
First Quarter
Jan 15
Full

Hourly Weather History & Observations

Time (EST) Temp. Windchill Dew Point Humidity Pressure Visibility Wind Dir Wind Speed Gust Speed Precip Events Conditions
12:11 AM 23.0 °F 13.1 °F 19.0 °F 85% 29.99 in 1.0 mi SSE 9.2 mph - 0.01 in Snow Light Snow
1:24 AM 25.0 °F 17.1 °F 19.9 °F 81% 29.96 in 4.0 mi South 6.9 mph - 0.00 in Snow Light Snow
1:51 AM 27.0 °F 16.7 °F 21.9 °F 81% 29.98 in 3.0 mi South 11.5 mph - 0.01 in Snow Light Snow
2:28 AM 28.0 °F 18.6 °F 23.0 °F 81% 29.95 in 2.5 mi SSW 10.4 mph - 0.01 in Snow Light Snow
2:33 AM 27.0 °F 19.5 °F 23.0 °F 85% 29.95 in 1.8 mi SSW 6.9 mph - 0.01 in Snow Light Snow
2:45 AM 28.4 °F 20.4 °F 23.0 °F 80% 29.95 in 2.0 mi SSW 8.1 mph - 0.02 in Snow Light Freezing Drizzle
2:51 AM 28.0 °F 19.3 °F 23.0 °F 81% 29.99 in 1.8 mi SSW 9.2 mph - 0.02 in Snow Light Freezing Drizzle
3:03 AM 28.0 °F 20.0 °F 23.0 °F 81% 29.96 in 2.0 mi SSW 8.1 mph - 0.00 in Snow Light Freezing Drizzle
3:11 AM 27.0 °F 18.7 °F 23.0 °F 85% 29.95 in 3.0 mi South 8.1 mph - 0.00 in Snow Light Freezing Drizzle
3:18 AM 27.0 °F 20.5 °F 23.0 °F 85% 29.95 in 5.0 mi SW 5.8 mph - 0.00 in Snow Light Snow
3:30 AM 27.0 °F 19.5 °F 23.0 °F 85% 29.95 in 5.0 mi SW 6.9 mph - 0.00 in Snow Light Snow
3:36 AM 28.0 °F 21.7 °F 23.0 °F 81% 29.95 in 5.0 mi SW 5.8 mph - 0.00 in Snow Light Snow
3:51 AM 28.0 °F 19.3 °F 24.1 °F 85% 29.99 in 5.0 mi WSW 9.2 mph - 0.00 in   Overcast
4:51 AM 28.0 °F 17.0 °F 24.1 °F 85% 29.97 in 5.0 mi West 13.8 mph - N/A   Overcast
5:35 AM 26.1 °F 13.1 °F 21.0 °F 81% 29.95 in 8.0 mi WNW 17.3 mph - N/A   Overcast
5:51 AM 26.1 °F 15.0 °F 19.9 °F 78% 29.99 in 8.0 mi West 12.7 mph - N/A   Overcast
6:12 AM 25.0 °F 12.6 °F 19.0 °F 78% 29.97 in 7.0 mi WNW 15.0 mph 23.0 mph N/A   Overcast
6:51 AM 23.0 °F 10.1 °F 18.0 °F 81% 30.02 in 7.0 mi West 15.0 mph - N/A   Overcast
7:51 AM 21.9 °F 9.8 °F 17.1 °F 82% 30.05 in 7.0 mi West 12.7 mph - N/A   Overcast
8:51 AM 21.0 °F 9.9 °F 16.0 °F 81% 30.07 in 6.0 mi WSW 10.4 mph - N/A   Haze
9:51 AM 21.9 °F 14.5 °F 17.1 °F 82% 30.08 in 6.0 mi SW 5.8 mph - N/A   Haze
10:51 AM 24.1 °F 16.0 °F 18.0 °F 77% 30.07 in 8.0 mi SW 6.9 mph - N/A   Overcast
11:51 AM 25.0 °F 15.5 °F 19.0 °F 78% 30.05 in 10.0 mi SSW 9.2 mph - N/A   Overcast
12:51 PM 25.0 °F 13.6 °F 19.0 °F 78% 30.02 in 10.0 mi SSW 12.7 mph - N/A   Overcast
1:51 PM 26.1 °F 14.5 °F 19.0 °F 75% 29.99 in 10.0 mi South 13.8 mph - N/A   Mostly Cloudy
2:51 PM 27.0 °F 16.7 °F 19.0 °F 72% 29.98 in 10.0 mi SSW 11.5 mph - N/A   Overcast
3:51 PM 27.0 °F 16.1 °F 19.0 °F 72% 29.97 in 10.0 mi South 12.7 mph - N/A   Overcast
4:51 PM 27.0 °F 17.3 °F 19.0 °F 72% 29.99 in 10.0 mi SSW 10.4 mph - N/A   Overcast
5:12 PM 27.0 °F 16.1 °F 19.0 °F 72% 29.96 in 10.0 mi SSW 12.7 mph - N/A   Overcast
5:51 PM 27.0 °F 18.0 °F 19.0 °F 72% 29.99 in 8.0 mi SSW 9.2 mph - N/A   Overcast
6:51 PM 27.0 °F 17.3 °F 21.0 °F 78% 30.02 in 3.0 mi SW 10.4 mph - 0.00 in Snow Light Snow
6:58 PM 27.0 °F 15.6 °F 21.0 °F 78% 29.99 in 2.5 mi SW 13.8 mph - 0.00 in Snow Light Snow
7:12 PM 27.0 °F 16.7 °F 21.0 °F 78% 29.99 in 1.8 mi SW 11.5 mph - 0.01 in Snow Light Snow
7:22 PM 27.0 °F 17.3 °F 21.9 °F 81% 29.99 in 3.0 mi SW 10.4 mph - 0.01 in Snow Light Snow
7:51 PM 27.0 °F 17.3 °F 21.0 °F 78% 30.02 in 7.0 mi SW 10.4 mph - 0.01 in Snow Light Snow
8:02 PM 27.0 °F 17.3 °F 21.0 °F 78% 29.99 in 7.0 mi SW 10.4 mph - 0.00 in Snow Light Snow
8:43 PM 27.0 °F 16.1 °F 21.0 °F 78% 30.01 in 8.0 mi WSW 12.7 mph - 0.00 in   Overcast
8:51 PM 27.0 °F 15.6 °F 21.0 °F 78% 30.05 in 9.0 mi WSW 13.8 mph - 0.00 in   Overcast
9:07 PM 27.0 °F 14.7 °F 21.0 °F 78% 30.02 in 6.0 mi WSW 16.1 mph 20.7 mph 0.00 in Snow Light Snow
9:51 PM 27.0 °F 16.7 °F 21.0 °F 78% 30.06 in 7.0 mi WSW 11.5 mph - 0.00 in Snow Light Snow
10:41 PM 33.1 °F 24.4 °F 21.0 °F 61% 30.04 in 9.0 mi WSW 11.5 mph - 0.00 in   Overcast
10:51 PM 30.0 °F 21.1 °F 19.9 °F 66% 30.07 in 9.0 mi SW 10.4 mph - 0.00 in   Overcast
11:17 PM 30.0 °F 21.1 °F 19.9 °F 66% 30.05 in 9.0 mi WSW 10.4 mph - N/A   Overcast
11:51 PM 32.0 °F 22.5 °F 21.0 °F 64% 30.08 in 9.0 mi SW 12.7 mph - N/A   Overcast